Wind_Speed
8 8 11 12 11 10 10 10 9 9 8 8 8 8 9 9 8 8 8 8 7 6 7 7 8 9 9 9 9 8 7 7 7 6 5 7 11 15 16 16 16 17 19 21 22 25 27 27 27 27 27 25 25 24 24 24 23 22 21 21 21 19 18 18 18 18 18 18 18 17 16 17 18 18 19 19 20 22 23 23 23 24 25 25 26
9 9 11 13 12 11 11 10 10 10 9 9 9 10 10 9 8 8 8 8 7 7 7 8 9 9 9 9 8 8 7 6 6 6 5 5 9 14 16 17 17 17 19 21 23 25 27 28 27 27 27 25 25 25 24 24 23 22 21 20 20 19 18 18 17 17 17 17 17 16 15 16 17 17 18 18 19 21 22 22 23 23 24 25 26
10 11 13 14 13 12 11 11 11 11 10 10 10 10 10 9 9 9 9 8 7 7 7 8 8 8 8 8 7 7 6 5 5 4 4 4 6 11 16 18 18 18 20 21 23 25 27 28 28 27 27 26 25 25 24 24 23 22 21 21 20 19 17 17 17 17 16 16 16 15 14 15 16 16 17 17 18 20 21 21 22 23 24 24 25
11 12 13 15 13 13 12 12 13 12 11 11 11 11 11 10 9 9 9 8 7 7 6 7 7 7 7 6 6 5 4 4 4 4 4 5 7 10 14 18 19 19 20 22 23 26 27 28 28 27 27 26 26 25 25 24 23 23 22 21 20 18 17 16 16 16 16 15 15 14 13 14 15 15 15 16 17 19 19 19 21 22 23 24 24
12 12 13 15 13 13 13 13 13 12 12 11 12 12 11 10 9 9 9 9 7 6 6 6 6 6 6 5 4 4 3 3 4 4 3 5 7 10 13 17 20 21 21 22 24 26 28 28 28 28 27 26 26 25 25 24 23 23 22 21 20 18 17 16 16 15 15 14 14 13 12 12 14 13 13 14 16 18 18 19 20 21 22 23 23
12 13 14 15 13 13 13 13 13 13 13 12 13 12 11 10 10 9 9 9 8 7 6 5 5 5 5 4 4 3 2 2 3 4 4 4 7 11 14 16 20 21 21 22 23 25 27 28 28 28 27 26 26 26 25 24 24 23 22 21 20 19 17 16 16 15 14 14 13 12 11 11 11 12 13 14 15 16 16 18 19 20 22 22 23
12 13 13 14 13 13 13 13 13 13 13 13 13 13 12 10 10 10 10 9 7 7 5 4 4 4 4 4 3 3 2 2 2 3 3 4 5 10 14 17 19 21 22 22 23 24 26 28 28 28 27 26 26 26 25 25 24 23 22 22 20 19 18 17 16 15 14 13 12 12 11 9 10 11 12 13 13 14 15 16 17 18 20 22 22
13 13 13 13 13 13 13 13 13 14 14 13 13 13 12 11 11 10 10 9 7 6 5 4 4 4 4 3 3 3 2 2 1 2 3 3 3 7 14 17 18 20 22 23 23 24 25 27 28 28 27 27 27 26 26 25 24 23 23 22 21 20 18 17 16 15 14 13 12 11 10 9 10 11 11 12 12 12 13 15 16 17 19 20 22
13 12 12 12 13 13 13 13 13 13 13 13 13 13 12 11 11 10 9 8 7 6 5 4 4 4 3 3 3 3 3 2 2 2 2 2 3 5 13 18 18 20 21 23 23 24 25 26 28 28 28 28 28 27 26 25 25 24 23 22 21 21 20 18 17 16 14 13 12 11 9 9 9 10 9 10 11 11 12 13 15 16 18 19 20
12 11 12 13 13 13 13 13 12 13 13 13 13 13 12 11 11 10 9 8 7 6 5 4 4 3 3 3 3 3 3 3 2 2 1 2 3 5 12 18 19 19 21 22 23 24 25 26 27 29 30 29 28 28 26 25 25 24 23 23 22 22 21 19 18 16 15 13 12 11 9 9 9 8 8 9 9 9 10 11 13 15 16 18 19
12 13 14 14 13 12 12 12 12 12 13 13 13 12 11 11 10 10 8 7 7 6 6 5 4 4 3 3 3 4 4 4 3 3 2 2 3 5 10 17 19 19 19 20 22 23 25 26 27 29 30 30 29 28 27 26 25 25 24 23 23 23 21 20 18 17 15 14 13 11 9 8 8 7 7 7 7 8 8 9 12 14 15 16 17
14 14 13 13 12 12 12 12 11 12 13 13 12 12 11 11 10 9 8 8 7 7 6 5 5 4 4 4 4 4 4 4 3 3 3 3 4 5 8 13 17 18 18 19 20 21 24 25 26 27 28 29 29 28 27 26 26 25 24 24 23 23 22 21 19 18 16 15 14 12 10 8 7 6 5 5 6 6 7 8 11 13 13 15 16
13 12 11 11 12 12 12 11 11 12 13 12 12 11 11 11 9 8 8 8 7 7 6 6 5 5 5 4 4 4 4 4 4 4 4 4 4 6 7 10 13 16 17 18 18 20 22 24 26 26 27 28 29 29 28 27 26 26 24 23 23 23 23 22 21 19 17 16 14 13 11 8 7 5 4 4 4 5 6 8 9 11 12 14 15
11 11 10 10 11 11 11 11 12 12 13 12 12 11 11 10 9 8 8 7 7 7 6 6 5 5 5 5 5 5 4 4 4 4 4 4 5 6 7 8 10 12 14 16 17 18 20 22 25 26 27 28 29 29 28 27 27 26 25 24 23 23 24 23 22 20 19 17 14 13 11 8 7 6 3 2 2 4 6 7 7 9 11 12 14
11 10 9 10 10 9 9 10 12 12 12 12 12 11 11 9 8 8 7 7 7 7 6 6 6 6 5 5 5 5 5 5 5 5 5 4 4 6 6 7 8 9 11 13 15 17 18 20 23 26 27 27 28 29 29 28 27 27 26 25 24 24 24 24 23 22 20 18 15 13 11 8 7 6 4 2 1 4 6 7 6 7 9 11 13
11 11 10 10 10 9 9 10 12 12 12 11 11 11 10 9 8 7 7 6 6 6 6 6 6 6 5 5 5 5 5 6 6 6 5 4 4 5 5 6 7 8 9 10 13 15 17 19 21 24 27 28 28 29 29 28 27 27 27 26 25 25 25 25 25 23 22 20 17 14 12 10 8 7 6 3 3 4 5 6 6 6 7 9 11
13 13 12 11 11 10 10 11 12 12 11 11 11 10 9 8 7 7 6 6 6 6 6 6 6 5 5 6 5 5 6 5 5 5 4 3 4 4 5 6 7 8 9 10 11 13 15 17 19 22 25 27 28 29 29 29 28 27 27 27 26 26 26 26 25 24 23 22 19 16 14 12 10 9 8 5 5 5 6 6 6 5 6 7 10
16 15 14 13 12 12 11 11 11 11 11 11 10 9 8 7 7 7 7 6 6 5 5 5 5 5 5 6 5 5 6 5 5 4 3 3 3 4 5 6 7 8 9 10 10 11 13 15 17 19 22 26 28 29 29 29 29 28 27 28 28 27 27 27 26 25 24 24 21 19 16 15 13 12 10 8 7 7 7 7 6 5 5 6 8
16 16 15 14 14 13 11 10 11 11 12 11 10 9 8 7 6 6 6 5 5 4 5 5 5 6 6 6 6 6 6 5 6 5 4 3 3 3 5 6 6 8 9 10 10 11 12 13 16 18 20 23 27 29 29 29 29 29 28 28 28 28 27 27 26 25 26 26 23 21 19 17 16 14 13 11 10 10 9 8 7 6 5 5 6
15 16 16 15 14 12 11 11 12 11 11 11 10 9 8 7 6 6 5 4 4 4 5 6 6 6 6 6 6 7 6 6 6 5 4 3 2 2 3 3 4 6 9 10 10 10 10 12 14 16 18 21 25 28 30 30 29 29 29 28 28 28 29 28 27 25 26 26 25 23 21 19 18 17 16 14 13 12 11 10 8 6 6 5 5
16 17 15 14 13 11 11 11 11 10 10 10 10 9 8 7 6 5 3 3 4 5 6 5 6 6 6 7 7 7 7 6 6 4 3 2 1 1 1 1 2 4 7 9 9 9 9 11 13 14 16 19 22 26 29 30 29 29 29 29 29 29 30 30 28 26 26 26 25 23 22 20 19 19 18 16 15 14 13 12 9 8 6 5 5
17 16 14 14 12 11 11 10 10 10 9 9 9 9 8 7 6 5 4 4 5 6 7 6 6 7 7 7 7 8 7 7 6 4 4 4 2 1 1 1 1 2 4 6 7 7 7 9 12 13 14 17 20 24 28 30 30 29 29 29 29 29 30 31 29 26 26 26 25 24 23 22 20 20 19 18 17 16 15 14 11 9 8 6 5
16 15 14 13 12 10 10 10 9 9 8 7 7 7 7 7 7 7 5 5 6 7 8 8 8 8 7 7 9 9 9 8 7 5 5 5 3 1 1 1 2 2 1 3 5 6 6 7 11 12 12 14 18 22 26 28 29 29 29 28 28 27 29 30 29 26 26 26 25 24 23 22 21 20 20 19 18 17 16 15 13 11 9 8 7
15 14 13 11 9 9 9 8 7 7 6 6 6 6 6 7 8 8 5 5 7 7 8 9 9 8 8 8 10 10 10 9 8 7 5 4 3 2 1 2 2 2 2 1 3 5 5 5 8 11 11 12 15 20 24 27 28 28 28 28 27 27 28 30 28 26 27 26 24 24 24 23 21 20 20 20 19 18 17 15 14 13 11 10 8
15 12 10 8 7 8 8 7 7 6 6 5 5 5 6 7 8 7 6 7 8 8 9 10 9 9 9 8 9 10 11 10 9 7 5 4 3 3 3 3 3 2 2 1 1 3 4 5 6 8 10 11 13 17 20 24 27 28 28 28 27 27 29 29 27 26 27 25 24 24 24 23 22 21 21 21 20 19 18 17 15 14 13 12 11
13 9 7 7 8 8 9 9 7 7 6 5 4 5 6 7 7 7 7 8 8 8 9 11 11 10 9 8 8 10 10 10 8 6 5 5 4 4 4 4 4 4 3 2 2 2 3 5 5 6 9 10 11 13 16 19 23 26 28 28 28 28 29 29 27 27 27 25 24 24 24 24 24 23 22 22 21 21 20 18 17 16 15 13 12
10 8 7 7 8 9 9 9 7 7 6 5 5 5 6 7 8 8 8 9 10 10 10 12 13 12 9 7 8 10 10 9 8 6 6 6 5 4 4 4 4 4 4 4 3 3 3 5 5 5 8 8 9 10 12 15 19 23 26 28 29 29 30 30 28 28 27 25 24 24 25 25 25 24 23 23 23 23 22 20 19 18 16 15 13
10 7 6 6 7 9 7 6 6 7 5 5 5 5 7 8 8 8 8 11 11 11 12 14 14 13 10 8 8 9 9 9 8 7 7 7 5 4 4 4 4 3 5 5 4 3 3 4 4 5 6 7 7 8 10 12 15 19 23 25 27 28 30 30 28 28 27 25 24 24 25 26 25 25 24 24 24 24 23 22 21 20 18 16 15
10 6 6 7 8 6 4 5 6 7 6 6 5 7 8 9 10 9 10 11 11 11 12 14 15 14 11 9 9 9 9 10 8 7 7 7 6 5 5 4 4 4 4 5 5 4 3 3 4 5 6 7 7 7 7 8 11 15 19 23 25 26 27 28 27 28 26 24 23 24 24 25 25 24 24 25 25 25 25 24 22 21 20 18 16
8 5 7 8 7 6 5 7 8 7 6 6 6 8 9 10 11 10 10 10 10 12 13 14 14 14 13 11 10 10 11 12 11 8 7 7 7 7 6 5 6 6 5 6 6 5 4 5 7 6 6 8 8 6 6 7 8 11 14 19 23 24 24 25 26 26 24 22 22 23 23 24 23 23 23 24 25 25 25 25 23 22 21 20 18
4 6 8 8 8 8 8 9 9 6 5 4 5 8 9 10 10 10 10 10 11 13 12 13 14 15 14 10 9 10 11 12 11 8 6 7 8 9 9 8 9 8 8 7 7 6 6 7 8 6 6 7 7 7 6 6 7 8 10 15 20 22 22 23 24 26 24 21 21 22 22 22 22 22 22 23 23 24 25 25 24 22 21 21 20
4 9 7 8 10 9 8 8 6 4 2 3 3 6 8 9 10 10 10 9 10 11 12 14 14 15 12 8 10 11 11 11 9 7 6 7 9 10 10 11 11 10 10 9 8 8 8 8 6 6 6 7 8 7 6 7 7 7 8 11 15 19 21 21 23 25 25 23 22 22 22 20 20 20 21 21 21 22 23 24 24 23 22 21 21
9 10 7 9 9 4 4 4 3 3 3 4 4 5 7 9 10 10 10 10 9 10 11 13 12 12 10 9 10 10 11 10 9 9 8 8 8 10 11 12 13 12 11 11 11 10 9 8 7 8 8 8 9 8 8 8 6 6 7 8 10 14 17 19 21 23 25 24 23 22 22 20 19 19 19 20 20 20 21 22 23 23 22 22 21
13 14 11 10 6 1 3 3 4 5 7 7 7 7 7 8 8 8 10 11 10 9 10 11 11 11 10 10 11 10 11 10 10 11 11 11 11 12 13 13 14 13 13 12 12 12 11 10 9 10 9 9 10 9 9 9 7 8 8 7 8 10 12 14 18 21 24 25 24 23 22 21 19 19 19 19 19 19 20 20 22 23 22 21 21
15 17 14 11 7 6 6 3 1 4 6 6 7 9 9 8 8 8 8 10 11 10 11 12 12 12 12 12 12 12 11 10 12 12 11 12 13 13 13 13 14 13 13 14 14 14 12 12 12 12 12 11 11 11 11 10 10 12 12 11 10 10 11 12 14 17 21 24 24 23 23 22 20 20 20 20 19 19 19 20 21 22 22 22 21
16 16 14 11 9 8 6 3 2 2 3 3 5 7 8 7 7 8 8 10 12 13 13 13 12 12 12 12 12 13 12 12 13 12 12 13 11 11 12 12 13 13 13 14 15 14 13 13 13 14 15 15 15 13 13 12 12 13 14 16 14 13 13 13 13 14 16 19 21 23 23 22 22 22 23 21 20 19 20 20 20 21 22 22 22
18 16 14 11 9 7 5 3 3 2 2 3 4 4 5 5 6 7 7 10 11 13 14 14 13 11 11 12 12 14 16 17 16 14 15 15 12 11 12 13 13 13 13 13 13 13 14 13 12 13 15 17 17 15 14 13 13 13 14 16 17 17 16 15 15 15 15 17 19 22 22 22 23 25 25 24 22 20 20 20 19 19 21 22 22
18 16 15 12 10 8 6 5 4 3 3 3 3 3 3 4 5 7 7 9 10 10 13 15 16 14 13 13 13 13 14 15 15 14 15 15 13 13 14 15 14 14 13 13 13 13 14 15 14 14 15 16 16 15 14 13 12 11 11 12 14 16 17 17 17 17 16 17 19 21 22 23 24 25 26 25 24 23 22 21 20 20 20 21 22
19 17 15 11 10 8 7 6 4 4 5 5 3 2 3 4 5 6 8 9 9 9 10 11 13 15 15 15 13 12 11 11 11 12 12 13 14 13 14 15 15 14 14 13 14 14 15 16 15 15 15 15 15 15 15 14 13 12 11 12 12 13 15 16 17 18 18 18 19 21 23 24 25 26 27 27 27 26 25 24 23 22 21 20 20
19 16 14 11 10 10 9 7 5 5 6 6 4 3 4 5 7 8 10 11 10 8 8 8 10 11 13 15 15 14 12 11 11 12 12 13 14 13 13 14 14 14 13 13 14 14 15 15 15 16 15 14 15 15 16 16 15 14 13 14 14 14 15 15 16 16 17 18 20 21 23 25 26 27 28 28 28 27 26 25 24 23 21 21 20
19 16 15 13 12 12 9 7 6 6 6 6 5 4 4 6 9 10 12 13 10 7 7 7 8 9 10 13 15 15 14 12 13 13 14 14 16 16 15 14 14 13 12 11 12 14 14 13 13 15 15 14 14 15 16 17 16 15 15 15 15 15 14 15 16 16 17 18 19 20 22 25 27 28 29 29 29 28 26 26 26 24 23 23 23
18 18 15 14 14 13 10 8 7 7 7 6 5 6 7 9 10 11 13 14 11 7 6 6 6 7 8 9 12 14 14 14 14 15 15 15 17 18 18 16 14 13 12 12 11 12 13 12 10 12 15 15 14 14 15 16 16 15 14 14 15 14 14 14 16 17 19 19 20 20 21 24 27 29 30 29 29 29 27 25 25 24 24 23 23
19 18 16 15 15 13 11 10 9 8 8 7 7 7 9 11 12 13 14 15 13 10 6 5 5 6 6 6 8 10 12 13 14 14 14 15 16 18 18 17 15 14 13 12 12 12 12 12 11 12 14 15 15 15 15 15 16 14 13 12 13 13 13 14 15 17 19 20 21 21 22 24 26 29 30 31 29 27 26 25 25 24 25 24 24
21 20 18 17 16 15 13 11 10 9 9 9 9 8 10 12 14 16 16 16 14 12 8 5 4 4 4 5 5 7 8 9 10 11 11 11 13 15 16 16 15 15 14 13 12 12 11 12 12 12 14 15 16 15 15 15 15 14 13 13 12 13 14 13 13 13 14 15 16 19 21 24 26 28 30 31 28 25 25 26 26 24 25 26 26
21 20 18 18 18 16 14 13 12 11 10 10 10 9 10 12 13 15 17 17 16 14 11 7 4 2 2 3 4 4 4 5 6 6 6 7 8 9 11 12 13 14 14 14 14 14 13 13 13 13 13 14 14 15 15 16 15 15 15 14 13 13 13 13 12 12 11 10 11 13 16 21 26 28 29 29 25 23 25 26 25 23 22 24 25
18 18 18 19 19 18 17 15 13 13 13 11 10 10 10 11 13 14 17 17 17 16 12 8 4 1 1 1 1 1 1 1 2 3 3 4 5 6 7 8 10 10 10 11 12 13 13 12 12 12 12 12 12 13 15 16 16 15 15 14 13 13 13 12 12 13 13 13 12 12 12 15 21 26 29 29 26 22 23 25 25 23 22 22 22
16 17 20 21 20 20 19 16 14 14 14 13 12 12 11 11 12 14 16 16 16 16 13 9 5 2 2 3 3 2 2 2 1 2 2 3 3 5 6 7 7 6 6 6 7 8 8 8 8 9 10 11 12 13 14 14 15 15 14 13 13 14 14 11 11 13 14 14 13 13 12 10 12 17 22 25 25 23 23 25 25 24 24 23 21
13 16 20 22 21 21 20 17 16 16 16 15 14 13 13 11 12 14 14 14 14 15 13 10 7 4 3 4 4 3 3 2 2 2 3 3 3 4 4 4 4 4 5 5 5 5 4 4 4 5 7 8 10 11 12 13 13 13 13 13 14 14 13 11 12 12 13 13 12 12 12 10 9 11 13 16 18 19 22 24 25 24 24 24 23
13 14 16 19 21 22 22 21 22 19 17 17 17 16 15 12 12 14 14 15 14 14 13 12 8 4 2 2 3 3 2 2 2 2 3 3 3 3 3 3 3 3 3 4 3 4 3 4 4 4 4 4 5 7 9 10 11 12 12 12 12 12 12 12 11 11 11 11 12 12 12 11 10 11 11 11 10 11 13 17 22 24 24 23 23
13 14 16 18 20 20 22 26 26 20 18 18 19 18 17 13 13 14 15 15 15 14 13 12 8 3 1 1 2 2 2 2 2 3 3 4 4 4 4 4 4 4 3 3 3 3 3 4 4 4 3 3 3 3 5 6 7 9 10 10 11 11 11 10 10 9 9 9 10 11 12 12 11 11 12 11 9 9 10 11 15 20 24 24 23
13 16 18 19 20 19 20 26 28 23 19 21 21 20 18 15 14 15 15 15 15 14 12 10 6 2 3 4 5 5 5 5 4 4 4 5 5 5 5 5 5 5 4 4 3 4 4 4 4 4 3 3 3 2 3 3 4 5 6 7 8 9 9 9 8 8 8 8 9 10 11 11 11 11 12 12 11 10 8 8 10 14 19 22 23
Wind_Direction
209 232 230 219 208 201 198 196 199 202 201 198 193 189 191 194 198 196 189 172 151 139 132 127 118 113 107 104 103 99 97 93 96 99 110 134 151 163 168 166 161 160 159 162 167 169 169 170 170 168 166 163 161 159 156 153 153 151 146 140 139 140 137 130 124 118 112 107 102 98 92 84 77 73 70 66 64 62 60 57 55 53 51 49 48
222 238 230 218 206 203 198 198 203 204 202 199 195 192 194 199 203 200 190 171 151 140 131 128 122 118 111 108 108 104 102 95 97 101 116 140 155 163 170 170 166 164 163 165 169 172 171 172 172 170 169 167 165 162 160 158 157 155 151 148 147 147 144 136 128 120 114 109 104 100 93 85 78 74 71 67 63 62 60 57 54 53 52 49 47
219 228 223 214 204 202 200 202 205 207 204 202 198 195 199 204 207 202 191 175 157 141 130 127 122 120 116 112 111 108 105 100 97 97 120 151 166 166 171 175 171 168 167 169 172 174 174 175 174 173 172 170 168 166 164 162 160 159 158 156 154 154 150 142 133 125 119 114 109 103 96 88 81 75 71 68 63 61 59 57 54 53 52 50 47
203 214 216 209 205 202 201 205 207 210 206 205 201 198 204 208 210 203 192 179 163 148 134 129 123 121 120 119 117 110 106 101 98 92 113 151 176 174 173 178 177 173 172 173 174 176 177 178 178 176 175 174 172 170 168 165 164 165 165 163 160 160 157 150 141 133 126 120 114 107 100 92 85 79 73 69 64 61 59 57 54 53 52 50 48
199 207 212 210 208 203 204 207 209 212 208 208 205 203 206 209 210 202 192 182 170 161 146 135 129 128 128 130 129 118 109 96 96 94 101 141 175 185 178 180 182 179 176 177 178 178 179 180 180 179 177 177 176 174 172 169 170 171 170 168 167 166 164 159 151 143 134 127 120 113 105 95 90 85 78 72 66 62 58 56 54 52 51 49 47
203 207 210 212 210 207 207 209 211 213 211 210 208 206 208 210 207 199 193 185 176 171 159 147 138 136 138 139 137 130 118 93 93 97 99 126 167 188 186 183 185 184 181 181 181 181 181 183 183 182 180 179 180 178 176 175 175 175 175 174 173 172 171 167 161 152 142 135 127 118 110 102 99 93 84 74 67 63 58 55 53 52 51 49 47
203 206 209 211 213 211 209 210 213 214 213 211 210 210 210 210 203 197 193 188 180 176 171 159 146 143 144 143 143 138 130 110 92 93 95 109 151 184 191 187 187 188 185 183 184 184 184 185 185 185 183 182 183 182 180 180 180 179 180 179 179 179 178 176 170 161 151 142 135 122 117 117 107 93 84 77 69 64 59 55 53 51 51 49 47
198 200 204 209 214 212 211 212 212 213 214 212 212 212 213 210 201 197 195 191 188 184 177 166 153 151 149 152 154 146 137 130 106 83 89 95 130 174 189 188 187 191 190 187 186 186 187 187 187 187 186 185 185 184 184 185 184 183 184 184 184 185 185 184 178 170 162 150 142 132 131 129 110 94 86 82 74 65 60 56 52 50 49 48 47
191 192 200 208 212 212 211 211 211 213 214 214 213 214 215 209 200 197 198 195 194 188 177 168 158 155 158 167 162 154 152 154 140 97 92 96 117 161 181 185 186 191 194 192 189 188 189 189 189 189 189 189 188 186 187 189 189 187 188 188 188 191 192 190 185 180 171 158 152 147 147 139 117 104 92 85 78 67 59 56 53 49 48 47 46
185 192 203 207 209 210 209 208 208 212 212 213 214 214 213 208 202 198 198 198 196 187 177 168 161 164 172 180 174 167 166 167 157 142 130 115 128 155 175 182 185 191 195 196 193 191 191 191 192 192 193 192 190 188 188 191 192 191 191 191 193 195 196 195 192 187 178 167 161 158 157 144 124 113 100 89 82 70 60 55 52 49 47 46 44
185 196 202 206 207 205 204 204 205 209 210 211 213 213 210 206 203 199 197 196 192 182 175 168 166 177 183 192 187 179 174 174 173 166 162 142 142 152 171 181 185 190 194 197 197 196 194 194 194 195 195 195 193 191 190 193 195 195 194 196 197 198 200 199 197 193 187 177 167 165 165 149 134 124 111 96 87 76 62 54 51 49 45 44 43
185 192 200 206 206 201 198 199 200 203 204 207 209 209 207 203 200 198 195 192 187 178 171 169 177 188 197 208 202 194 189 186 192 185 179 165 153 156 168 179 186 191 194 197 200 201 199 197 197 197 198 198 195 193 193 195 197 197 197 199 200 202 203 203 202 200 196 187 176 172 172 160 150 144 125 103 87 72 60 53 50 48 44 42 41
183 190 201 204 200 198 196 196 197 198 199 202 204 205 206 201 199 197 193 187 183 177 171 174 185 196 209 218 216 208 205 205 209 200 188 180 171 168 171 178 186 193 196 198 201 203 204 202 201 199 199 200 198 196 196 196 200 200 200 202 204 205 206 205 205 204 203 196 186 179 173 171 170 166 147 109 78 59 51 48 47 45 42 40 39
186 195 201 200 196 195 196 198 197 196 197 198 200 204 204 199 197 193 187 183 181 178 174 180 190 206 217 221 220 218 222 231 228 218 206 197 195 186 184 185 188 194 200 203 203 204 205 206 205 202 201 202 201 199 198 198 202 202 201 204 207 209 210 209 208 207 209 204 196 189 178 180 189 186 177 122 59 44 38 37 39 39 39 38 37
190 199 204 203 196 196 199 200 197 195 195 196 200 201 199 195 193 188 182 182 182 179 176 184 198 210 215 215 218 226 236 245 246 237 229 221 211 203 202 202 197 198 204 208 209 208 207 207 208 205 203 204 203 202 200 200 203 204 203 205 208 212 213 214 212 209 213 209 202 199 189 192 205 207 209 225 3 22 22 22 24 29 35 36 35
193 200 203 202 197 199 201 196 193 192 194 196 199 199 195 191 187 185 183 183 183 182 181 190 204 210 210 210 215 226 240 249 255 248 239 236 224 218 222 225 219 212 214 217 217 216 212 210 209 209 206 205 205 204 202 202 204 205 205 206 209 214 216 217 216 213 216 216 210 207 202 204 217 226 229 244 300 344 358 4 9 13 25 31 33
195 200 201 199 198 201 198 193 191 191 195 196 196 197 195 192 186 185 184 186 187 188 191 199 211 214 209 210 213 222 236 249 259 254 245 246 237 230 236 241 239 232 228 227 227 224 220 216 212 211 209 208 207 205 204 204 206 206 207 208 209 214 218 220 219 217 220 222 219 216 214 215 223 235 242 251 277 309 327 339 350 354 9 22 28
192 197 199 200 200 200 196 192 194 195 198 196 195 194 195 193 187 191 190 189 193 199 207 213 218 220 219 216 215 223 233 245 255 253 248 247 240 239 248 251 248 242 236 231 229 230 227 221 216 212 211 211 209 207 206 206 207 207 208 210 211 214 218 221 222 221 223 226 226 224 225 226 230 240 250 258 271 289 304 316 328 337 348 6 20
193 198 197 200 201 200 195 192 195 200 203 199 196 194 196 195 192 200 202 200 206 218 225 228 228 231 235 229 222 222 232 244 250 251 246 243 251 263 262 259 255 247 240 234 230 231 231 226 220 214 210 212 211 209 207 207 208 209 210 212 213 215 218 222 224 223 226 230 231 229 232 236 239 244 252 260 269 278 290 302 308 318 328 342 5
197 198 197 199 202 199 194 195 199 204 207 205 202 203 204 202 201 208 214 213 216 233 234 232 237 242 241 232 225 223 232 244 248 250 248 246 255 265 260 265 264 249 237 233 232 236 241 234 224 216 208 209 211 210 208 207 208 209 211 213 215 217 219 222 223 224 228 233 234 234 237 240 245 248 252 259 266 273 281 290 294 300 309 318 340
197 197 198 199 197 191 191 196 199 203 204 202 205 210 212 210 209 209 212 212 224 242 239 237 242 241 239 233 230 228 235 244 244 244 242 239 229 206 202 325 293 247 230 229 232 240 254 246 228 218 209 206 209 210 209 207 207 209 211 213 216 219 221 221 221 223 227 233 236 237 240 243 246 250 254 258 264 270 277 282 283 286 291 299 314
194 195 196 195 190 184 188 193 195 198 195 193 205 212 216 218 218 216 214 218 235 243 240 247 246 240 240 239 239 235 236 240 237 231 220 218 219 204 150 39 348 270 227 226 231 243 261 249 227 219 208 202 206 208 209 208 207 207 209 212 215 220 223 223 222 222 226 232 235 237 240 244 247 250 254 258 263 268 273 276 277 278 281 286 296
193 191 190 192 186 180 186 192 192 195 191 192 207 216 221 224 225 225 226 233 246 247 246 252 251 249 246 239 240 235 232 230 224 223 218 214 218 245 270 336 345 341 306 226 227 242 261 247 225 219 205 196 202 206 208 209 209 208 209 211 213 218 224 225 223 222 226 230 234 238 241 243 247 250 254 258 261 264 268 271 273 274 274 275 282
188 187 191 193 180 174 183 189 187 186 187 191 208 222 229 233 235 236 244 254 258 257 255 255 249 245 242 235 235 234 229 223 219 223 219 211 217 245 267 279 322 351 5 345 222 236 254 252 233 223 209 195 198 203 206 209 210 211 212 213 213 217 224 227 226 224 227 230 233 237 241 243 246 249 254 257 260 262 264 266 268 269 269 269 273
182 187 190 188 173 166 168 174 180 181 185 192 208 226 237 244 245 247 257 267 270 265 257 255 246 237 240 241 238 235 230 224 220 225 228 218 226 247 254 262 282 304 317 332 253 243 254 265 255 235 217 200 198 202 205 208 211 213 215 215 216 219 224 228 227 227 229 232 233 236 240 244 246 248 251 255 258 259 260 261 263 264 265 266 268
170 180 177 173 168 162 161 162 171 182 190 202 217 229 239 247 251 260 269 273 276 270 259 254 248 243 248 252 251 245 235 228 222 221 232 225 223 244 250 254 264 269 269 274 265 270 278 277 271 249 226 204 201 203 203 209 213 215 216 216 216 219 224 226 226 228 230 232 233 237 241 244 245 246 248 252 256 257 258 259 259 260 261 263 265
153 152 152 161 168 163 162 162 173 190 199 211 220 230 246 256 261 269 273 270 272 272 259 250 249 249 248 247 251 248 233 222 217 216 226 226 225 242 250 249 249 251 248 243 244 263 283 284 280 261 236 213 205 205 202 208 216 218 217 215 214 217 222 225 224 227 230 231 233 236 241 244 245 246 247 249 253 255 256 257 258 258 259 260 261
137 135 150 163 172 161 162 175 184 198 202 205 212 230 247 256 257 260 263 261 264 262 249 246 250 250 244 231 232 242 239 224 210 209 221 230 236 245 250 253 257 251 249 248 243 243 269 292 295 278 255 230 215 212 202 202 212 219 218 216 215 218 222 225 225 228 230 230 232 235 239 243 245 245 246 248 251 253 254 255 256 257 257 257 258
131 143 174 167 176 169 190 208 193 197 198 204 223 243 252 255 253 255 260 258 260 253 244 244 245 247 243 222 213 225 236 234 219 208 220 234 241 251 252 260 269 270 267 253 238 232 253 273 270 264 257 241 229 221 214 206 209 218 221 219 218 220 224 225 225 229 231 230 232 236 239 243 246 247 248 248 250 252 253 253 253 254 255 254 254
125 161 186 174 183 186 215 215 205 208 202 210 229 244 255 262 260 261 259 251 251 249 247 244 240 245 244 222 206 208 216 225 220 209 222 236 239 249 255 266 275 274 270 254 239 234 238 244 245 242 241 242 237 232 233 226 216 218 224 225 223 224 227 228 228 230 232 230 232 236 239 243 247 249 249 249 250 251 252 252 252 252 253 252 251
132 200 192 177 183 190 212 214 215 220 221 242 251 250 261 273 273 270 258 243 237 238 241 241 239 242 245 231 214 211 212 221 222 214 225 239 242 249 258 270 274 270 263 259 253 242 234 238 243 241 243 246 244 239 241 239 226 219 224 227 228 228 230 230 231 232 232 230 231 236 239 242 245 246 247 248 250 251 252 251 251 251 252 251 250
210 222 197 189 197 197 204 210 222 230 241 278 286 264 265 268 269 265 255 245 233 230 228 226 230 238 248 243 224 218 215 220 226 223 224 236 245 249 254 259 260 261 262 262 256 244 238 242 247 246 244 245 241 234 231 233 228 223 226 228 231 233 233 231 232 234 235 233 232 235 238 241 244 244 244 245 247 251 252 251 250 249 250 250 251
217 225 203 209 219 198 184 222 276 298 299 303 298 267 254 253 257 254 249 246 236 234 230 222 224 230 238 240 231 228 221 215 214 217 217 221 237 249 250 249 248 249 251 254 252 246 247 251 253 250 246 240 236 230 229 230 227 230 234 234 238 241 240 238 238 239 240 241 238 237 241 244 245 245 245 246 247 250 253 252 250 248 248 249 250
213 222 209 213 225 169 199 259 314 320 323 324 313 297 281 268 262 252 241 239 236 239 241 237 231 219 219 232 235 238 233 221 215 216 211 204 214 232 239 240 241 243 244 247 249 248 251 252 250 250 248 240 234 234 238 241 239 240 243 242 245 250 248 242 242 245 246 246 245 242 243 247 247 246 245 246 247 247 249 251 249 248 248 248 249
210 216 209 206 195 179 193 218 264 309 329 330 314 308 304 293 276 265 245 237 234 234 242 245 240 228 222 226 229 233 235 231 227 219 211 209 209 213 220 228 233 238 242 245 246 245 247 249 245 242 239 235 234 236 241 247 247 246 246 243 245 254 257 248 239 242 246 249 250 248 246 248 247 245 244 244 246 246 245 246 246 246 246 248 249
209 207 202 196 186 188 191 201 237 278 317 306 303 303 303 298 284 276 259 243 231 226 239 247 244 234 225 223 222 223 224 229 232 225 221 226 222 214 216 226 233 236 240 241 243 242 243 247 244 237 232 231 233 238 242 247 249 248 247 244 242 247 258 259 247 240 243 249 254 255 252 250 249 247 246 245 244 245 244 244 244 244 245 246 248
206 202 199 196 197 205 205 218 247 250 259 283 298 300 305 314 305 293 275 259 243 227 230 238 240 236 230 226 218 213 212 215 222 223 225 230 230 227 229 232 236 237 236 236 238 239 239 242 241 235 232 232 235 238 241 245 248 249 248 245 241 241 247 253 253 248 246 249 253 257 258 255 251 250 249 248 245 243 244 245 244 243 243 244 246
203 200 199 199 207 213 216 231 242 248 271 294 305 308 322 336 329 318 301 280 267 248 234 231 232 232 234 234 226 223 221 217 220 224 226 233 235 233 234 234 233 233 233 235 235 236 236 237 238 237 236 235 235 236 237 240 242 244 244 243 241 241 242 244 249 250 249 250 252 256 258 258 256 254 252 252 249 245 242 241 241 241 241 241 243
203 202 201 205 215 219 227 240 246 262 285 294 301 337 5 353 350 351 337 318 302 284 263 247 239 233 231 234 235 237 240 236 236 237 235 242 244 239 237 238 237 238 237 234 233 234 235 235 235 236 237 236 234 230 229 230 230 234 237 238 239 240 242 243 246 249 250 251 252 254 257 259 260 259 256 253 251 248 244 241 239 238 238 238 240
206 206 208 215 223 228 235 241 250 270 285 290 301 336 1 357 6 18 10 357 339 314 290 273 260 246 233 230 233 234 239 242 244 244 242 246 250 247 242 240 241 243 242 238 235 233 233 233 233 233 233 233 232 227 224 228 234 240 243 243 244 245 247 248 249 251 252 252 251 252 254 258 260 260 258 256 254 251 249 248 246 242 240 239 239
210 215 221 226 227 232 238 241 252 270 281 288 300 313 330 352 5 15 18 15 1 331 300 279 263 254 241 233 234 236 238 242 246 248 247 247 251 253 250 246 243 240 242 243 241 237 233 234 234 230 226 226 227 225 226 232 240 246 249 248 246 247 250 252 254 256 256 256 255 253 252 253 257 258 258 257 256 254 252 252 253 251 248 245 242
220 225 229 230 230 231 235 244 259 270 276 281 285 291 317 349 3 7 13 15 7 347 315 288 267 250 241 235 234 237 239 241 246 251 253 253 252 252 253 251 247 241 239 240 240 238 232 230 229 221 219 221 223 225 229 234 239 242 245 244 243 244 248 251 254 256 256 256 257 257 255 252 252 255 256 255 256 257 255 252 251 252 252 252 250
229 230 232 231 231 228 232 246 257 262 266 273 280 295 323 343 353 357 7 12 5 357 336 299 280 258 245 239 236 237 239 241 245 248 251 252 249 248 250 250 246 242 239 236 237 236 229 226 224 217 214 215 220 226 232 235 238 238 234 234 239 244 248 250 252 254 255 254 254 256 257 256 254 254 254 253 252 252 253 251 248 248 251 253 255
232 230 233 233 229 224 229 243 249 252 259 271 285 303 322 335 343 349 355 1 360 357 350 318 283 265 257 252 244 241 241 243 246 246 242 240 240 242 244 245 243 240 238 235 232 229 227 227 222 217 215 216 222 226 227 233 236 235 233 237 244 248 250 252 254 254 254 254 254 254 254 256 256 254 252 251 249 245 247 251 251 250 251 252 254
239 235 236 232 227 222 224 234 239 240 247 265 283 295 312 324 334 341 345 351 352 351 350 341 315 276 259 253 249 245 239 239 243 246 241 230 228 230 235 241 241 240 239 238 238 236 237 237 230 224 220 220 225 225 225 233 239 239 242 246 249 251 252 253 254 250 247 250 259 260 253 251 251 252 250 248 247 245 244 249 251 249 250 254 255
247 238 233 230 229 224 220 226 232 232 238 253 271 281 298 315 323 331 339 344 346 345 345 343 331 289 212 206 209 218 204 210 230 240 244 228 218 219 223 230 233 236 237 238 243 247 248 248 246 242 234 230 232 232 231 232 235 240 244 244 244 250 254 253 252 249 250 255 264 267 259 250 249 251 251 247 243 244 244 246 248 246 247 252 256
253 239 233 235 236 231 224 225 231 233 238 245 258 272 283 301 313 321 332 339 342 341 338 336 321 261 192 170 167 171 167 161 177 197 219 220 207 203 207 215 221 225 223 224 231 240 244 243 248 251 244 239 239 238 236 232 231 235 239 239 241 248 251 249 250 250 255 260 262 261 257 259 256 253 253 248 242 244 243 241 243 245 246 248 251
255 245 243 246 248 241 231 233 240 235 236 245 251 263 271 285 305 314 324 331 336 336 333 333 326 286 233 205 199 205 201 200 201 193 196 201 191 186 191 198 195 192 195 201 207 215 216 213 223 232 225 225 230 234 239 240 240 240 240 243 247 252 256 256 257 257 259 258 257 256 255 261 269 265 260 253 252 256 253 244 240 241 243 246 249
256 255 256 255 257 251 238 241 247 234 229 241 246 256 264 274 295 305 314 321 329 335 334 336 336 318 277 235 211 208 203 198 198 193 188 186 178 167 163 162 154 150 166 176 176 183 185 174 177 191 191 190 203 221 232 238 243 245 245 247 250 256 262 267 269 269 267 261 258 260 259 260 267 270 268 268 277 287 279 260 248 243 242 243 248
259 266 270 264 263 260 246 245 249 235 223 233 239 248 257 267 285 296 305 315 326 336 338 339 342 347 0 121 134 127 122 117 127 143 156 165 167 162 156 147 136 126 125 125 125 138 146 142 148 158 157 151 162 200 226 236 245 250 253 256 259 263 267 269 269 268 266 260 258 259 257 260 265 271 274 278 286 300 309 294 267 255 249 246 250
261 266 272 272 268 263 251 246 247 240 223 223 232 241 249 260 276 288 299 311 323 334 339 342 350 36 91 103 101 91 87 85 93 105 120 136 145 151 154 151 146 138 132 126 119 118 119 121 125 133 142 143 147 177 212 233 252 262 268 270 270 272 272 272 270 270 267 263 266 267 266 268 268 266 268 271 271 274 296 305 283 265 256 251 253
Height
3149 3151 3152 3153 3153 3154 3155 3155 3156 3157 3158 3158 3159 3160 3160 3160 3160 3160 3160 3160 3160 3160 3160 3161 3161 3161 3160 3160 3160 3160 3160 3160 3160 3160 3160 3161 3161 3162 3163 3163 3164 3165 3166 3167 3168 3169 3170 3172 3173 3174 3175 3176 3178 3179 3180 3180 3181 3182 3183 3184 3184 3185 3186 3186 3186 3186 3186 3186 3187 3187 3187 3188 3188 3187 3187 3186 3185 3184 3183 3182 3181 3180 3179 3178 3177
3148 3150 3150 3152 3152 3153 3154 3155 3156 3156 3157 3158 3158 3159 3160 3160 3160 3160 3160 3160 3160 3160 3160 3161 3161 3161 3161 3161 3161 3161 3161 3161 3161 3161 3161 3161 3161 3162 3163 3163 3164 3165 3166 3167 3169 3170 3171 3172 3173 3175 3176 3177 3178 3179 3180 3181 3182 3183 3184 3184 3184 3185 3186 3186 3186 3187 3187 3187 3187 3188 3188 3188 3188 3188 3188 3187 3186 3185 3184 3183 3183 3182 3180 3179 3178
3147 3148 3150 3151 3152 3153 3153 3154 3155 3156 3157 3157 3158 3159 3159 3160 3160 3160 3160 3160 3160 3160 3160 3161 3161 3161 3161 3161 3161 3161 3161 3161 3161 3161 3161 3161 3161 3162 3163 3163 3164 3165 3166 3167 3169 3170 3171 3172 3173 3175 3176 3177 3178 3179 3180 3181 3182 3183 3183 3184 3185 3186 3186 3187 3187 3187 3187 3188 3188 3189 3189 3189 3189 3189 3188 3188 3187 3186 3185 3185 3184 3183 3182 3181 3180
3146 3147 3149 3150 3151 3152 3153 3154 3154 3155 3156 3157 3157 3158 3159 3159 3159 3160 3160 3160 3160 3160 3160 3161 3161 3161 3161 3161 3161 3161 3161 3161 3161 3161 3161 3161 3161 3161 3162 3163 3164 3165 3166 3167 3168 3169 3171 3172 3174 3175 3176 3177 3178 3179 3181 3182 3182 3183 3183 3184 3185 3186 3187 3187 3188 3188 3188 3188 3189 3189 3190 3189 3189 3189 3189 3189 3188 3187 3187 3186 3185 3184 3183 3182 3181
3145 3146 3148 3149 3150 3151 3152 3153 3154 3155 3156 3156 3157 3158 3158 3159 3159 3159 3160 3160 3160 3160 3160 3161 3161 3161 3161 3161 3161 3161 3161 3161 3161 3161 3161 3161 3161 3161 3162 3163 3164 3165 3166 3167 3168 3169 3170 3172 3173 3175 3176 3177 3179 3180 3181 3182 3182 3183 3183 3184 3185 3186 3187 3187 3188 3188 3188 3189 3189 3189 3190 3190 3190 3189 3189 3189 3189 3188 3188 3187 3186 3186 3185 3184 3183
3144 3145 3147 3149 3150 3151 3152 3153 3154 3154 3155 3156 3156 3157 3158 3158 3159 3159 3159 3159 3160 3160 3160 3160 3160 3161 3161 3161 3161 3161 3161 3161 3160 3160 3161 3161 3161 3161 3161 3162 3163 3164 3166 3167 3168 3169 3170 3172 3173 3175 3176 3178 3179 3180 3181 3182 3182 3183 3184 3184 3185 3186 3187 3187 3188 3188 3189 3189 3190 3190 3191 3191 3190 3189 3190 3190 3190 3189 3189 3188 3188 3187 3186 3185 3184
3143 3145 3147 3148 3150 3151 3152 3152 3153 3154 3155 3155 3156 3157 3157 3158 3158 3159 3159 3159 3159 3159 3160 3160 3160 3161 3161 3161 3161 3161 3161 3161 3160 3160 3160 3160 3161 3161 3161 3161 3162 3164 3165 3166 3168 3169 3170 3172 3173 3175 3176 3178 3179 3180 3181 3181 3182 3183 3184 3184 3185 3186 3187 3187 3188 3188 3189 3189 3190 3190 3191 3191 3190 3190 3190 3190 3190 3190 3190 3189 3189 3188 3187 3187 3186
3143 3145 3147 3148 3150 3151 3151 3152 3153 3153 3154 3155 3156 3156 3157 3158 3158 3158 3159 3159 3159 3159 3160 3160 3160 3160 3161 3161 3161 3161 3161 3161 3160 3160 3160 3160 3160 3160 3160 3161 3162 3163 3164 3165 3167 3168 3170 3172 3173 3175 3176 3177 3178 3179 3181 3181 3182 3183 3183 3184 3185 3186 3186 3187 3188 3189 3189 3190 3190 3191 3191 3191 3190 3191 3191 3191 3191 3191 3191 3190 3190 3189 3189 3188 3187
3143 3145 3147 3149 3150 3151 3151 3152 3152 3153 3154 3155 3155 3156 3157 3157 3158 3158 3159 3159 3159 3159 3160 3160 3160 3160 3161 3161 3161 3161 3161 3161 3161 3160 3160 3160 3160 3160 3160 3161 3162 3162 3163 3164 3166 3168 3169 3171 3173 3174 3175 3176 3177 3179 3180 3181 3182 3183 3183 3184 3185 3185 3186 3187 3188 3189 3189 3190 3191 3191 3191 3191 3191 3191 3191 3191 3191 3192 3192 3191 3191 3190 3190 3189 3188
3144 3146 3148 3149 3150 3150 3151 3152 3152 3153 3154 3154 3155 3156 3157 3157 3157 3158 3158 3159 3159 3159 3160 3160 3160 3160 3160 3161 3161 3161 3161 3161 3161 3160 3160 3160 3160 3160 3160 3160 3161 3162 3162 3164 3165 3167 3168 3170 3171 3173 3174 3175 3177 3178 3180 3180 3181 3182 3183 3184 3184 3184 3186 3187 3188 3189 3190 3190 3191 3191 3191 3191 3191 3191 3192 3192 3192 3192 3192 3192 3191 3191 3191 3190 3190
3144 3145 3146 3148 3149 3150 3151 3151 3152 3152 3153 3154 3155 3155 3156 3157 3157 3158 3158 3159 3159 3159 3159 3159 3159 3160 3160 3160 3161 3161 3161 3161 3161 3160 3160 3160 3160 3160 3160 3160 3161 3161 3162 3163 3164 3166 3167 3169 3170 3172 3173 3175 3177 3178 3179 3180 3181 3182 3183 3183 3183 3184 3185 3187 3188 3189 3190 3191 3191 3192 3192 3192 3192 3192 3192 3192 3192 3192 3193 3193 3192 3192 3191 3191 3191
3143 3144 3146 3147 3148 3149 3150 3151 3151 3152 3153 3153 3154 3155 3156 3157 3157 3157 3158 3158 3158 3158 3159 3159 3159 3159 3160 3160 3160 3160 3161 3161 3161 3160 3161 3161 3161 3161 3161 3161 3161 3161 3162 3163 3164 3165 3167 3168 3170 3171 3173 3174 3176 3178 3179 3180 3180 3181 3183 3183 3183 3184 3185 3186 3188 3189 3190 3190 3191 3192 3192 3192 3192 3192 3192 3192 3193 3193 3193 3193 3193 3192 3192 3192 3191
3144 3145 3146 3147 3148 3148 3149 3150 3150 3151 3152 3153 3154 3155 3156 3156 3157 3157 3158 3158 3158 3158 3158 3158 3158 3159 3159 3160 3160 3160 3160 3160 3160 3160 3160 3161 3161 3161 3161 3161 3161 3161 3162 3163 3164 3165 3166 3167 3169 3171 3172 3174 3176 3177 3179 3180 3180 3181 3183 3183 3184 3184 3184 3185 3187 3188 3189 3190 3191 3192 3192 3193 3193 3193 3193 3193 3193 3193 3193 3194 3193 3193 3193 3193 3192
3144 3146 3146 3147 3147 3148 3149 3149 3150 3150 3151 3152 3153 3154 3155 3156 3156 3157 3157 3158 3158 3158 3158 3158 3158 3159 3159 3159 3159 3160 3160 3160 3160 3160 3160 3160 3161 3161 3161 3161 3161 3161 3162 3162 3163 3164 3165 3167 3168 3170 3171 3173 3175 3176 3178 3179 3179 3181 3182 3183 3183 3183 3184 3185 3186 3188 3189 3190 3191 3192 3192 3193 3193 3193 3193 3193 3193 3194 3194 3194 3194 3194 3194 3193 3193
3144 3145 3146 3147 3147 3148 3148 3148 3149 3150 3151 3152 3153 3154 3155 3155 3156 3156 3157 3157 3158 3158 3158 3158 3158 3158 3158 3159 3159 3159 3159 3159 3159 3160 3160 3160 3161 3161 3161 3161 3161 3161 3162 3162 3163 3163 3164 3166 3167 3169 3170 3172 3174 3175 3177 3178 3179 3180 3182 3182 3183 3183 3184 3184 3186 3187 3188 3190 3191 3192 3192 3193 3193 3193 3193 3193 3194 3194 3194 3194 3194 3194 3194 3194 3194
3143 3144 3145 3146 3147 3147 3147 3148 3149 3150 3151 3152 3152 3153 3154 3155 3155 3156 3157 3157 3157 3158 3158 3158 3158 3158 3158 3158 3158 3159 3159 3159 3159 3159 3160 3160 3160 3161 3161 3161 3161 3161 3162 3162 3162 3163 3164 3165 3166 3167 3169 3171 3173 3174 3176 3177 3178 3180 3181 3181 3182 3182 3183 3184 3185 3187 3188 3189 3191 3191 3192 3193 3193 3193 3193 3194 3194 3194 3194 3194 3195 3195 3195 3194 3194
3141 3142 3144 3145 3145 3146 3146 3147 3148 3150 3151 3152 3152 3153 3153 3154 3155 3156 3156 3157 3157 3158 3158 3158 3158 3158 3158 3158 3158 3158 3158 3158 3159 3159 3159 3160 3160 3160 3161 3161 3161 3161 3161 3161 3161 3162 3163 3164 3165 3166 3168 3170 3171 3173 3175 3176 3177 3179 3180 3180 3181 3181 3182 3183 3185 3187 3188 3189 3190 3191 3192 3193 3193 3193 3193 3194 3194 3194 3194 3195 3195 3195 3195 3195 3195
3141 3142 3143 3143 3144 3144 3145 3147 3149 3150 3151 3151 3152 3152 3153 3154 3155 3155 3156 3156 3157 3157 3158 3158 3158 3158 3158 3158 3158 3158 3158 3158 3158 3158 3159 3159 3159 3160 3160 3160 3160 3160 3160 3160 3161 3161 3162 3163 3164 3165 3167 3168 3170 3172 3174 3175 3176 3177 3179 3179 3180 3180 3181 3182 3184 3187 3188 3188 3189 3191 3192 3192 3193 3193 3193 3193 3194 3194 3194 3195 3195 3195 3195 3195 3195
3140 3141 3141 3142 3143 3144 3145 3147 3148 3149 3150 3151 3151 3152 3153 3153 3154 3155 3155 3156 3157 3157 3157 3157 3158 3157 3158 3158 3158 3158 3158 3158 3158 3158 3158 3158 3159 3159 3159 3160 3159 3159 3159 3160 3160 3160 3161 3161 3162 3164 3165 3167 3169 3171 3172 3174 3175 3176 3177 3178 3179 3179 3180 3181 3183 3186 3187 3187 3189 3190 3191 3192 3192 3192 3193 3193 3194 3194 3194 3194 3195 3195 3195 3195 3195
3139 3139 3140 3141 3143 3144 3145 3146 3147 3148 3149 3150 3151 3151 3152 3153 3154 3154 3155 3156 3156 3157 3157 3157 3157 3157 3157 3157 3158 3158 3158 3158 3157 3157 3158 3158 3158 3159 3159 3159 3159 3159 3159 3159 3159 3160 3160 3161 3161 3162 3164 3165 3167 3169 3171 3172 3174 3175 3176 3177 3178 3179 3179 3180 3182 3185 3186 3186 3188 3190 3190 3191 3191 3192 3192 3193 3193 3193 3194 3194 3194 3195 3195 3195 3195
3139 3139 3140 3141 3143 3144 3145 3146 3147 3148 3148 3149 3150 3151 3151 3152 3153 3154 3155 3156 3156 3156 3156 3157 3157 3157 3156 3157 3157 3157 3157 3157 3157 3157 3157 3158 3158 3158 3158 3158 3158 3158 3158 3158 3159 3159 3160 3160 3160 3162 3163 3164 3165 3167 3169 3170 3172 3173 3174 3176 3177 3177 3177 3178 3181 3183 3185 3185 3187 3189 3189 3190 3191 3191 3192 3192 3193 3193 3193 3194 3194 3194 3194 3194 3195
3138 3139 3140 3142 3143 3144 3145 3145 3146 3147 3148 3149 3149 3150 3151 3151 3152 3154 3155 3156 3156 3156 3156 3156 3156 3155 3156 3156 3156 3157 3157 3156 3157 3157 3157 3157 3158 3158 3158 3158 3158 3157 3157 3158 3158 3159 3159 3159 3159 3160 3162 3163 3164 3165 3167 3168 3170 3171 3173 3174 3175 3176 3175 3176 3179 3182 3183 3184 3186 3188 3188 3189 3190 3190 3191 3191 3192 3192 3193 3193 3194 3194 3194 3194 3194
3138 3139 3140 3141 3142 3144 3144 3145 3146 3147 3148 3149 3149 3150 3150 3151 3152 3153 3154 3155 3155 3155 3155 3155 3155 3155 3155 3155 3155 3156 3156 3156 3156 3156 3157 3157 3158 3158 3158 3157 3157 3157 3157 3157 3158 3158 3158 3158 3158 3159 3160 3162 3162 3164 3165 3167 3168 3169 3171 3172 3174 3174 3174 3175 3178 3181 3182 3183 3185 3187 3187 3188 3189 3189 3190 3190 3191 3192 3192 3193 3193 3193 3194 3194 3194
3138 3138 3139 3141 3142 3143 3144 3145 3146 3147 3148 3148 3149 3149 3150 3150 3151 3152 3154 3155 3155 3155 3155 3154 3154 3154 3154 3154 3154 3154 3155 3155 3156 3156 3156 3157 3157 3157 3157 3157 3157 3157 3157 3157 3157 3157 3157 3157 3158 3159 3160 3161 3162 3162 3164 3165 3167 3168 3170 3171 3173 3173 3172 3174 3177 3180 3180 3182 3184 3185 3186 3187 3188 3188 3189 3189 3190 3191 3191 3192 3192 3193 3193 3194 3194
3137 3137 3139 3140 3142 3143 3144 3144 3145 3146 3147 3148 3148 3149 3149 3149 3150 3152 3154 3154 3154 3154 3154 3153 3153 3152 3153 3153 3153 3153 3154 3155 3155 3155 3156 3156 3156 3157 3156 3156 3156 3157 3157 3157 3157 3157 3157 3157 3158 3158 3159 3160 3161 3162 3163 3164 3166 3167 3169 3171 3172 3172 3171 3173 3176 3179 3179 3180 3182 3183 3184 3185 3186 3187 3188 3188 3189 3190 3190 3191 3191 3192 3192 3193 3193
3137 3138 3139 3141 3142 3143 3144 3145 3146 3146 3147 3148 3148 3149 3149 3149 3150 3152 3153 3153 3153 3153 3153 3152 3151 3151 3152 3152 3152 3152 3153 3154 3155 3156 3156 3155 3155 3156 3156 3156 3156 3157 3157 3157 3156 3156 3157 3157 3158 3158 3159 3160 3160 3161 3162 3163 3165 3166 3167 3169 3170 3170 3170 3172 3175 3177 3177 3179 3180 3182 3183 3184 3184 3185 3186 3187 3187 3188 3189 3189 3190 3190 3191 3192 3192
3137 3139 3140 3141 3142 3143 3144 3145 3146 3147 3147 3148 3148 3148 3148 3149 3150 3151 3152 3152 3152 3152 3152 3150 3149 3150 3151 3151 3150 3150 3151 3153 3155 3156 3156 3155 3155 3155 3155 3156 3156 3156 3156 3156 3156 3156 3157 3157 3157 3158 3158 3159 3159 3160 3161 3162 3163 3164 3165 3167 3168 3167 3167 3170 3173 3174 3175 3177 3179 3180 3181 3182 3183 3184 3184 3185 3186 3186 3187 3188 3189 3189 3190 3191 3191
3137 3140 3142 3142 3143 3143 3144 3145 3146 3146 3147 3148 3148 3148 3148 3149 3150 3150 3151 3151 3151 3151 3150 3149 3147 3148 3149 3150 3149 3148 3149 3152 3154 3155 3155 3154 3154 3155 3156 3156 3156 3156 3155 3155 3156 3156 3157 3157 3157 3157 3158 3158 3159 3159 3160 3161 3162 3163 3164 3165 3166 3166 3166 3168 3171 3173 3173 3175 3177 3178 3179 3180 3181 3182 3183 3183 3184 3185 3186 3187 3187 3188 3188 3189 3190
3136 3140 3142 3142 3143 3143 3144 3145 3145 3146 3147 3148 3147 3147 3147 3148 3149 3150 3150 3150 3149 3149 3149 3148 3147 3146 3147 3148 3149 3149 3149 3149 3152 3153 3152 3152 3154 3155 3155 3155 3155 3155 3155 3155 3155 3156 3156 3157 3157 3157 3157 3158 3158 3158 3159 3160 3161 3162 3163 3164 3165 3165 3165 3166 3170 3171 3172 3173 3175 3176 3177 3178 3179 3180 3181 3182 3182 3183 3184 3185 3186 3186 3187 3188 3189
3138 3140 3142 3142 3143 3143 3143 3144 3144 3145 3146 3147 3147 3146 3146 3147 3147 3148 3148 3148 3147 3147 3147 3147 3146 3144 3144 3146 3148 3149 3149 3149 3150 3151 3152 3153 3153 3154 3154 3154 3154 3154 3154 3154 3154 3155 3155 3156 3156 3157 3157 3157 3158 3158 3158 3159 3160 3161 3162 3163 3164 3164 3164 3165 3168 3170 3170 3171 3172 3173 3175 3176 3177 3178 3179 3180 3180 3181 3182 3183 3184 3185 3186 3186 3187
3139 3140 3141 3142 3143 3143 3143 3143 3143 3144 3145 3146 3146 3145 3145 3145 3145 3146 3146 3146 3146 3145 3146 3146 3144 3142 3142 3145 3148 3148 3149 3148 3149 3151 3153 3153 3153 3153 3153 3153 3153 3153 3153 3153 3153 3153 3154 3155 3155 3156 3156 3156 3157 3157 3158 3158 3159 3160 3160 3161 3162 3163 3164 3165 3166 3167 3168 3169 3170 3171 3173 3174 3175 3176 3177 3178 3179 3179 3180 3181 3183 3183 3184 3185 3185
3136 3137 3139 3141 3141 3142 3142 3141 3142 3143 3143 3144 3144 3144 3143 3143 3143 3143 3143 3144 3144 3144 3144 3144 3143 3142 3143 3145 3145 3145 3146 3147 3148 3151 3152 3152 3152 3152 3151 3151 3151 3151 3151 3152 3152 3152 3153 3153 3154 3154 3155 3155 3156 3157 3157 3157 3158 3159 3160 3160 3161 3162 3163 3164 3164 3165 3166 3168 3169 3170 3171 3172 3173 3174 3175 3176 3177 3178 3178 3179 3181 3182 3182 3183 3184
3134 3134 3134 3136 3138 3139 3139 3139 3140 3141 3142 3143 3144 3143 3143 3143 3142 3142 3141 3141 3142 3142 3142 3142 3142 3143 3143 3143 3142 3142 3145 3147 3149 3151 3151 3151 3151 3150 3149 3150 3150 3150 3151 3151 3151 3151 3151 3152 3153 3153 3154 3155 3155 3156 3156 3157 3158 3159 3159 3160 3160 3161 3162 3163 3163 3164 3165 3166 3167 3168 3169 3170 3171 3172 3173 3174 3175 3176 3176 3177 3179 3180 3181 3181 3182
3135 3134 3133 3133 3134 3135 3135 3136 3137 3138 3140 3140 3141 3141 3141 3142 3142 3141 3140 3139 3139 3139 3139 3140 3141 3142 3142 3141 3141 3141 3143 3146 3148 3150 3151 3150 3150 3149 3148 3149 3149 3149 3150 3150 3151 3150 3151 3152 3152 3153 3153 3154 3155 3155 3156 3157 3158 3158 3158 3159 3159 3160 3160 3162 3162 3162 3163 3164 3166 3167 3168 3169 3170 3171 3171 3172 3173 3174 3174 3175 3176 3178 3179 3180 3181
3133 3134 3134 3135 3135 3136 3136 3136 3136 3136 3137 3138 3138 3137 3138 3139 3139 3138 3138 3137 3137 3137 3137 3137 3139 3140 3141 3141 3141 3141 3142 3144 3145 3147 3148 3149 3149 3149 3148 3148 3148 3148 3148 3149 3149 3150 3150 3151 3151 3152 3153 3153 3154 3154 3155 3156 3157 3157 3157 3157 3158 3159 3159 3160 3161 3161 3162 3163 3163 3165 3166 3167 3168 3168 3169 3170 3171 3171 3172 3173 3174 3175 3176 3178 3179
3132 3134 3135 3136 3136 3137 3137 3138 3138 3137 3137 3137 3137 3137 3136 3136 3136 3136 3136 3136 3137 3137 3136 3136 3136 3138 3139 3140 3140 3141 3142 3142 3142 3144 3146 3146 3146 3147 3147 3147 3147 3147 3147 3147 3148 3149 3149 3149 3150 3151 3152 3152 3152 3153 3154 3155 3155 3156 3156 3156 3157 3158 3158 3159 3160 3160 3161 3161 3161 3162 3163 3165 3166 3166 3167 3168 3169 3169 3170 3171 3171 3173 3174 3175 3176
3132 3134 3135 3135 3136 3137 3137 3138 3138 3138 3138 3138 3138 3137 3136 3135 3134 3135 3135 3135 3135 3137 3136 3135 3135 3136 3137 3138 3140 3141 3142 3142 3143 3144 3144 3144 3144 3144 3145 3145 3145 3146 3146 3147 3147 3148 3148 3148 3149 3149 3150 3151 3151 3152 3153 3153 3154 3154 3155 3155 3155 3156 3157 3158 3158 3159 3160 3160 3160 3160 3161 3162 3163 3164 3165 3166 3167 3167 3168 3169 3169 3170 3172 3173 3174
3131 3133 3134 3135 3136 3136 3137 3137 3138 3138 3138 3138 3138 3137 3136 3135 3134 3133 3133 3132 3133 3134 3135 3135 3135 3135 3136 3136 3137 3139 3140 3141 3142 3142 3142 3141 3142 3142 3143 3143 3144 3145 3145 3146 3146 3146 3146 3147 3148 3148 3149 3149 3151 3151 3152 3152 3153 3153 3154 3154 3154 3154 3155 3156 3157 3157 3158 3159 3159 3159 3159 3160 3161 3162 3163 3164 3165 3165 3165 3166 3167 3168 3169 3170 3171
3130 3132 3133 3134 3135 3135 3136 3136 3137 3138 3138 3138 3138 3138 3137 3136 3135 3134 3131 3130 3130 3130 3131 3132 3132 3133 3134 3134 3135 3136 3137 3138 3138 3139 3139 3139 3140 3140 3141 3141 3142 3143 3144 3144 3144 3145 3145 3145 3146 3147 3147 3148 3149 3150 3150 3151 3151 3152 3152 3153 3153 3153 3154 3154 3155 3156 3157 3157 3158 3158 3158 3158 3158 3159 3160 3161 3162 3163 3163 3164 3164 3165 3166 3168 3169
3129 3131 3132 3133 3134 3135 3135 3136 3136 3137 3138 3138 3138 3138 3137 3136 3136 3134 3132 3130 3128 3127 3127 3128 3128 3129 3131 3132 3133 3134 3135 3136 3136 3136 3136 3137 3137 3138 3139 3140 3141 3141 3141 3142 3142 3143 3143 3144 3144 3145 3145 3146 3147 3148 3148 3149 3149 3150 3151 3151 3152 3152 3152 3153 3153 3154 3155 3155 3156 3156 3156 3156 3156 3156 3156 3157 3158 3160 3162 3162 3163 3164 3164 3165 3167
3128 3130 3131 3132 3133 3134 3135 3135 3136 3137 3137 3138 3138 3138 3138 3137 3136 3134 3133 3131 3128 3127 3126 3126 3126 3127 3128 3129 3131 3132 3133 3134 3134 3134 3135 3136 3136 3136 3137 3138 3139 3139 3139 3139 3140 3140 3141 3141 3142 3143 3143 3144 3145 3146 3147 3147 3148 3149 3149 3150 3150 3151 3151 3151 3151 3152 3152 3152 3153 3153 3154 3154 3154 3153 3154 3155 3155 3156 3158 3160 3161 3162 3162 3163 3164
3127 3128 3130 3131 3132 3133 3134 3135 3136 3137 3137 3138 3138 3138 3138 3137 3136 3135 3133 3131 3129 3127 3126 3125 3125 3126 3127 3128 3129 3129 3131 3132 3132 3133 3133 3134 3134 3134 3134 3135 3136 3137 3137 3137 3138 3138 3138 3139 3140 3141 3142 3142 3143 3144 3145 3146 3146 3147 3147 3148 3149 3149 3149 3150 3149 3149 3149 3150 3150 3150 3150 3151 3151 3151 3152 3152 3153 3153 3155 3156 3158 3159 3159 3160 3161
3127 3128 3129 3130 3131 3132 3133 3134 3136 3136 3137 3137 3138 3138 3137 3136 3136 3135 3134 3132 3130 3128 3126 3125 3124 3125 3125 3126 3127 3127 3129 3130 3130 3131 3131 3132 3132 3132 3132 3133 3133 3134 3134 3135 3136 3136 3137 3137 3138 3139 3140 3141 3142 3143 3143 3144 3144 3145 3146 3147 3147 3148 3148 3148 3148 3147 3147 3147 3148 3148 3148 3148 3148 3149 3149 3150 3150 3151 3152 3153 3154 3155 3156 3158 3159
3125 3126 3128 3129 3130 3132 3133 3134 3135 3136 3136 3137 3137 3137 3136 3136 3135 3134 3132 3132 3130 3128 3126 3125 3124 3124 3124 3124 3125 3126 3127 3127 3128 3128 3129 3129 3129 3130 3130 3130 3131 3132 3132 3133 3134 3135 3135 3136 3137 3138 3139 3140 3141 3141 3142 3142 3143 3144 3145 3146 3146 3146 3146 3146 3146 3145 3145 3145 3145 3145 3146 3146 3146 3147 3147 3147 3148 3149 3150 3150 3151 3153 3154 3155 3156
3124 3125 3127 3128 3129 3131 3132 3133 3134 3135 3135 3136 3136 3136 3136 3136 3135 3134 3132 3131 3129 3127 3126 3124 3123 3123 3123 3123 3123 3124 3125 3126 3126 3126 3127 3128 3128 3128 3128 3129 3129 3130 3131 3132 3133 3134 3134 3135 3136 3136 3137 3139 3140 3140 3141 3141 3142 3143 3144 3144 3145 3145 3145 3144 3144 3144 3144 3144 3143 3143 3143 3144 3144 3144 3144 3145 3146 3147 3148 3148 3148 3150 3151 3152 3153
3122 3123 3125 3126 3128 3130 3131 3132 3133 3134 3135 3135 3136 3136 3136 3136 3135 3134 3133 3132 3129 3127 3125 3124 3123 3122 3122 3122 3122 3123 3124 3124 3125 3125 3126 3126 3127 3128 3128 3128 3129 3130 3131 3132 3132 3133 3133 3134 3135 3136 3136 3137 3138 3139 3139 3140 3141 3142 3142 3142 3143 3143 3143 3143 3143 3143 3143 3142 3142 3142 3142 3142 3142 3142 3142 3143 3144 3145 3145 3146 3146 3147 3149 3150 3150
3120 3122 3123 3124 3127 3129 3130 3131 3132 3134 3135 3135 3135 3135 3136 3136 3136 3135 3134 3133 3131 3128 3126 3124 3123 3122 3122 3121 3122 3122 3123 3124 3124 3125 3125 3125 3126 3127 3127 3128 3129 3130 3131 3132 3132 3132 3132 3133 3134 3134 3135 3136 3137 3137 3138 3139 3139 3140 3140 3140 3141 3141 3141 3141 3141 3141 3141 3141 3141 3141 3140 3140 3140 3140 3140 3141 3142 3143 3143 3144 3144 3145 3147 3147 3148
3119 3121 3122 3124 3126 3128 3130 3130 3131 3133 3134 3135 3135 3135 3136 3136 3135 3135 3134 3134 3132 3130 3127 3125 3123 3122 3121 3121 3121 3121 3122 3123 3123 3124 3124 3125 3125 3126 3127 3127 3128 3129 3130 3130 3131 3131 3132 3132 3133 3133 3134 3135 3135 3136 3136 3137 3138 3138 3139 3139 3139 3139 3139 3139 3140 3140 3140 3140 3140 3140 3139 3140 3139 3139 3139 3140 3141 3141 3141 3142 3142 3143 3144 3145 3146
3118 3119 3121 3123 3124 3126 3129 3129 3129 3131 3132 3134 3135 3135 3135 3135 3135 3134 3134 3134 3133 3131 3128 3126 3123 3122 3121 3120 3120 3121 3121 3122 3122 3123 3123 3124 3125 3126 3126 3127 3127 3128 3129 3129 3130 3130 3131 3132 3132 3132 3133 3134 3135 3135 3135 3136 3136 3137 3137 3137 3138 3138 3138 3138 3138 3139 3139 3139 3139 3139 3139 3139 3138 3138 3138 3139 3139 3139 3139 3139 3140 3141 3142 3143 3144
3117 3118 3119 3121 3122 3124 3126 3128 3127 3128 3130 3132 3134 3134 3134 3134 3134 3133 3133 3133 3132 3131 3128 3126 3124 3122 3121 3120 3120 3120 3120 3121 3121 3122 3123 3123 3124 3125 3126 3127 3127 3128 3128 3129 3129 3130 3130 3131 3131 3132 3133 3133 3134 3134 3135 3135 3135 3136 3136 3136 3136 3136 3136 3137 3137 3137 3137 3137 3137 3138 3138 3138 3137 3137 3137 3137 3138 3138 3138 3137 3138 3138 3139 3140 3141
3116 3117 3117 3119 3119 3121 3124 3125 3126 3126 3128 3129 3131 3133 3132 3132 3132 3132 3132 3132 3131 3130 3129 3127 3125 3123 3121 3120 3120 3120 3120 3120 3121 3121 3122 3123 3124 3124 3125 3126 3127 3128 3128 3129 3129 3129 3130 3130 3131 3131 3132 3132 3133 3133 3134 3134 3134 3134 3135 3135 3135 3135 3135 3135 3135 3136 3136 3136 3136 3136 3136 3137 3137 3137 3136 3136 3137 3137 3137 3136 3136 3136 3137 3138 3139